Regional Weather Roundup
Issued by NWS Goodland, KS

Home | Current Version | Previous Version | Graphics & Text | Print | Product List | Glossary On
Versions: 1 2 3 4 5 6 7 8 9 10 11 12 13 14 15 16 17 18 19 20 21 22 23 24 25 26 27 28 29 30 31 32 33 34 35 36 37 38 39 40 41 42 43 44 45 46 47 48 49 50
000
ASUS43 KGLD 280608
RWRGLD

GOODLAND FORECAST AREA HOURLY WEATHER ROUNDUP
NATIONAL WEATHER SERVICE GOODLAND KS
1100 PM MST SAT DEC 27 2014

...OFFICIAL OBSERVATIONS...

CITY           SKY/WX    TMP DP  RH WIND       PRES   REMARKS
GOODLAND KS    PTCLDY    14   8  77 SW12      30.13F WCI   0
HILL CITY KS   CLEAR     14   9  80 W6        30.22S
IMPERIAL NEB   PTCLDY     6   0  76 W7        30.13F
MCCOOK NEB     PTCLDY     8   6  92 W5        30.17F
AKRON CO       PTCLDY    15   8  73 SW12      30.05F WCI   2
BURLINGTON CO  PTCLDY    13   7  77 SW13      30.11F WCI  -2
LIMON CO       PTCLDY     1  -3  83 N7        30.06F
$$

...UNOFFICIAL OBSERVATIONS...

CITY           SKY/WX    TMP DP  RH WIND       PRES   REMARKS
COLBY KS       CLEAR      7   3  85 SW7       30.17F
NORTON KS      CLEAR     10   5  79 SW8       30.17F
SHARON SPRINGS   N/A     10   6  85 W7          N/A
TRIBUNE KS     PTCLDY    10   9  92 SW8       30.18F
KIT CARSON CO    N/A     10   6  83 MISG        N/A
YUMA CO          N/A      9   4  79 SW7         N/A
$$



USA.gov is the U.S. government's official web portal to all federal, state and local government web resources and services.